Weather History for Nuiqsut, AK

Change the Weather History Date:

Sunday, October 7, 2012

  Actual Average (PAKU) Record (PAKU)
Temperature  
Mean Temperature 32 °F -  
Max Temperature 37 °F 23 °F 45 °F (1993)
Min Temperature 28 °F 17 °F 10 °F (1986)
Degree Days  
Heating Degree Days 32    
Moisture  
Dew Point 31 °F    
Average Humidity 92    
Maximum Humidity 100    
Minimum Humidity 78    
Precipitation  
Precipitation 0.01 in - - ()
Sea Level Pressure  
Sea Level Pressure 30.12 in    
Wind  
Wind Speed 9 mph (SW)    
Max Wind Speed 18 mph    
Max Gust Speed 25 mph    
Visibility 7 miles    
Events Rain    
Averages and records for this station are not official NWS values.
T = Trace of Precipitation, MM = Missing Value Source: NWS Daily Summary

Daily Weather History Graph

Daily Weather History Graph

Search for Another Location

Airport:

Trip Planner

Search our weather history database for the weather conditions in past years. The results will help you decide how hot, cold, wet, or windy it might be!

Date:

Astronomy

Oct. 07, 2012 Rise Set
Actual Time 8:47 AM AKDT 6:53 PM AKDT
Civil Twilight 7:45 AM AKDT 7:55 PM AKDT
Nautical Twilight 6:33 AM AKDT 9:07 PM AKDT
Astronomical Twilight 5:13 AM AKDT 10:25 PM AKDT
Moon 9:09 PM AKDT (10/7) 6:43 PM AKDT (10/7)
Length of Visible Light 12h 10m
Length of Day
10h 06m
Waning Gibbous, 55% of the Moon is Illuminated
Oct 7
Waning Gibbous
Oct 7
Last Quarter
Oct 15
New
Oct 21
First Quarter
Oct 29
Full

Hourly Weather History & Observations

Time (AKDT) Temp. Windchill Dew Point Humidity Pressure Visibility Wind Dir Wind Speed Gust Speed Precip Events Conditions
12:53 AM 28.9 °F 22.8 °F 26.1 °F 89% 30.04 in 10.0 mi South 5.8 mph - N/A   Clear
1:53 AM 28.0 °F 20.0 °F 26.1 °F 92% 30.05 in 10.0 mi South 8.1 mph - N/A   Clear
2:53 AM 30.0 °F 21.7 °F 28.0 °F 92% 30.05 in 10.0 mi South 9.2 mph - 0.00 in   Overcast
3:53 AM 32.0 °F 24.2 °F 28.9 °F 88% 30.06 in 10.0 mi South 9.2 mph - 0.00 in   Overcast
4:53 AM 30.0 °F 21.1 °F 28.0 °F 92% 30.05 in 10.0 mi South 10.4 mph - 0.00 in   Clear
5:53 AM 28.0 °F 19.3 °F 26.1 °F 92% 30.05 in 10.0 mi South 9.2 mph - N/A   Clear
6:53 AM 30.0 °F 21.1 °F 27.0 °F 88% 30.06 in 10.0 mi South 10.4 mph - N/A   Overcast
7:53 AM 30.9 °F 21.7 °F 28.0 °F 89% 30.06 in 10.0 mi South 11.5 mph - N/A   Overcast
8:53 AM 32.0 °F 23.6 °F 28.0 °F 85% 30.06 in 10.0 mi South 10.4 mph - N/A   Overcast
9:53 AM 33.1 °F 24.9 °F 28.9 °F 85% 30.07 in 10.0 mi South 10.4 mph - 0.00 in   Overcast
10:53 AM 35.1 °F 27.4 °F 28.9 °F 78% 30.08 in 10.0 mi SSW 10.4 mph - N/A   Overcast
11:53 AM 36.0 °F 28.5 °F 30.0 °F 79% 30.09 in 10.0 mi SSW 10.4 mph - 0.00 in   Overcast
12:53 PM 37.0 °F 27.7 °F 32.0 °F 82% 30.09 in 10.0 mi WSW 16.1 mph - 0.00 in Rain Light Rain
1:53 PM 37.9 °F 28.9 °F 32.0 °F 79% 30.11 in 10.0 mi WSW 16.1 mph 25.3 mph 0.00 in   Overcast
2:53 PM 37.0 °F 27.0 °F 33.1 °F 86% 30.12 in 10.0 mi WSW 18.4 mph - 0.00 in   Overcast
3:53 PM 37.9 °F 30.0 °F 33.1 °F 83% 30.12 in 10.0 mi WSW 12.7 mph - N/A   Overcast
4:53 PM 37.9 °F 30.9 °F 33.1 °F 83% 30.12 in 10.0 mi SW 10.4 mph - N/A   Clear
5:53 PM 34.0 °F 28.0 °F 30.9 °F 89% 30.13 in 10.0 mi SSW 6.9 mph - N/A   Scattered Clouds
6:07 PM 33.8 °F 28.6 °F 32.0 °F 93% 30.13 in 10.0 mi SSW 5.8 mph - N/A   Mostly Cloudy
6:53 PM 35.1 °F 27.9 °F 30.9 °F 85% 30.14 in 10.0 mi WSW 9.2 mph - N/A   Overcast
7:53 PM 35.1 °F 26.4 °F 32.0 °F 89% 30.15 in 8.0 mi WSW 12.7 mph - N/A   Overcast
8:02 PM 33.8 °F 26.4 °F 32.0 °F 93% 30.14 in 2.0 mi WSW 9.2 mph - 0.00 in Rain Light Rain
8:29 PM 33.8 °F 28.6 °F 33.8 °F 100% 30.15 in 2.5 mi WSW 5.8 mph - 0.00 in Rain Light Rain
8:49 PM 33.8 °F 29.6 °F 33.8 °F 100% 30.15 in 4.0 mi WSW 4.6 mph - 0.00 in   Overcast
8:53 PM 33.1 °F 28.7 °F 33.1 °F 100% 30.16 in 3.0 mi WSW 4.6 mph - 0.00 in   Overcast
9:01 PM 33.8 °F 29.6 °F 33.8 °F 100% 30.15 in 2.5 mi SW 4.6 mph - N/A   Overcast
9:21 PM 33.8 °F 28.6 °F 33.8 °F 100% 30.15 in 1.8 mi SW 5.8 mph - 0.01 in   Overcast
9:32 PM 33.8 °F 26.4 °F 33.8 °F 100% 30.15 in 3.0 mi WSW 9.2 mph - 0.01 in   Overcast
9:39 PM 33.8 °F 27.0 °F 33.8 °F 100% 30.16 in 6.0 mi WSW 8.1 mph - 0.01 in   Overcast
9:53 PM 33.1 °F 26.1 °F 32.0 °F 96% 30.16 in 5.0 mi WSW 8.1 mph - 0.01 in   Overcast
10:12 PM 32.0 °F 24.8 °F 32.0 °F 100% 30.17 in 2.5 mi WSW 8.1 mph - N/A   Overcast
10:28 PM 32.0 °F 24.8 °F 32.0 °F 100% 30.16 in 2.5 mi WSW 8.1 mph - N/A   Overcast
10:35 PM 32.0 °F 25.6 °F 32.0 °F 100% 30.17 in 4.0 mi WSW 6.9 mph - N/A   Overcast
10:47 PM 30.2 °F 23.4 °F 30.2 °F 100% 30.17 in 8.0 mi WSW 6.9 mph - N/A   Scattered Clouds
10:53 PM 30.9 °F 24.3 °F 30.9 °F 100% 30.17 in 9.0 mi WSW 6.9 mph - N/A   Scattered Clouds
11:36 PM 30.2 °F 22.6 °F 30.2 °F 100% 30.18 in 2.5 mi West 8.1 mph - N/A   Overcast
11:38 PM 30.2 °F 21.9 °F 30.2 °F 100% 30.18 in 3.0 mi WSW 9.2 mph - N/A   Overcast
11:51 PM 30.2 °F 21.3 °F 30.2 °F 100% 30.19 in 2.5 mi WSW 10.4 mph - N/A   Overcast
11:53 PM 30.9 °F 22.8 °F 30.9 °F 100% 30.19 in 2.5 mi WSW 9.2 mph - N/A   Overcast